EDT,Max TemperatureF,Mean TemperatureF,Min TemperatureF,Max Dew PointF,MeanDew PointF,Min DewpointF,Max Humidity, Mean Humidity, Min Humidity, Max Sea Level PressureIn, Mean Sea Level PressureIn, Min Sea Level PressureIn, Max VisibilityMiles, Mean VisibilityMiles, Min VisibilityMiles, Max Wind SpeedMPH, Mean Wind SpeedMPH, Max Gust SpeedMPH,PrecipitationIn, CloudCover, Events, WindDirDegrees
2012-9-1,91,83,74,76,72,70,93,73,52,30.14,30.09,30.04,10,10,10,12,3,15,0.02,3,Rain,284
2012-9-2,91,81,71,73,71,69,94,73,52,30.05,30.00,29.91,10,9,2,31,4,36,0.37,3,Rain-Thunderstorm,209
2012-9-3,85,78,70,73,71,68,97,86,74,30.05,30.00,29.96,10,9,2,17,5,22,0.34,4,Rain-Thunderstorm,138
2012-9-4,84,78,72,74,71,70,100,85,69,30.03,29.98,29.91,10,7,2,18,8,23,0.52,7,Rain,192
2012-9-5,87,79,71,72,71,69,100,81,61,29.97,29.91,29.84,10,9,5,21,9,32,0.00,5,,222
2012-9-6,85,78,70,73,71,70,93,79,65,29.98,29.91,29.87,10,10,5,13,6,17,0.14,5,Rain-Thunderstorm,214
2012-9-7,88,78,68,70,68,65,100,75,50,29.99,29.93,29.86,10,8,0,9,3,12,0.00,2,Fog,79
2012-9-8,88,78,67,74,68,60,100,78,55,29.89,29.78,29.70,10,8,0,33,7,40,0.03,5,Fog-Rain-Thunderstorm,223
2012-9-9,79,70,60,56,52,48,73,54,35,30.00,29.91,29.85,10,10,10,14,6,18,0.00,5,,356
2012-9-10,79,68,57,56,53,49,84,61,37,30.17,30.08,30.00,10,10,10,16,4,173,0.00,1,,24
2012-9-11,78,66,54,55,52,47,86,63,39,30.31,30.25,30.18,10,10,10,9,3,13,0.00,1,,75
2012-9-12,79,68,56,55,54,53,86,65,43,30.37,30.31,30.27,10,10,10,12,3,15,0.00,1,,87
2012-9-13,78,67,55,57,54,52,93,67,40,30.38,30.31,30.25,10,10,10,12,3,18,0.00,0,,54
2012-9-14,82,71,59,64,59,53,87,66,45,30.28,30.22,30.15,10,10,8,8,2,9,0.00,3,,30
2012-9-15,81,71,60,62,60,57,90,71,51,30.19,30.14,30.09,10,10,10,15,7,20,0.00,2,,72
2012-9-16,67,63,59,61,59,57,93,83,73,30.19,30.15,30.09,10,8,1,14,5,16,0.67,8,Rain,67
2012-9-17,75,68,61,70,65,59,97,88,79,30.12,30.03,29.90,10,9,1,15,5,20,0.11,7,Rain,108
2012-9-18,76,71,66,72,68,64,100,91,82,29.92,29.77,29.70,10,7,1,26,11,39,0.97,7,Rain-Thunderstorm,216
2012-9-19,72,65,58,62,54,52,87,70,53,30.14,30.03,29.86,10,10,10,16,6,20,0.00,5,,50
2012-9-20,75,64,52,58,55,51,100,75,49,30.18,30.12,30.05,10,10,7,8,3,12,0.00,1,,178
2012-9-21,79,68,56,62,59,55,100,73,45,30.09,30.04,29.99,10,10,7,13,6,20,0.00,1,,204
2012-9-22,84,74,64,64,61,59,93,70,46,29.98,29.94,29.86,10,10,9,23,9,28,0.16,3,Thunderstorm,235
2012-9-23,73,64,55,60,46,35,90,59,27,30.15,30.07,29.99,10,10,10,14,4,18,0.00,2,,12
2012-9-24,71,60,48,48,41,37,77,54,31,30.25,30.19,30.16,10,10,10,15,4,20,0.00,0,,12
2012-9-25,74,61,47,56,52,44,93,73,53,30.24,30.20,30.14,10,10,10,16,5,21,T,1,,221
2012-9-26,81,69,57,61,57,54,87,66,45,30.21,30.17,30.14,10,10,10,15,7,17,0.00,0,,221
2012-9-27,86,72,57,61,59,56,100,72,43,30.19,30.14,30.08,10,10,6,13,5,18,0.00,0,,221
2012-9-28,83,71,59,66,61,56,100,76,51,30.09,30.04,30.00,10,9,4,13,5,17,0.21,3,Rain-Thunderstorm,246
2012-9-29,67,63,59,64,62,59,100,97,93,30.01,29.96,29.90,10,5,0,13,3,16,1.10,8,Fog-Rain-Thunderstorm,26
2012-9-30,70,63,55,58,55,50,100,76,51,29.95,29.91,29.85,10,6,0,8,3,16,0.00,5,Fog,16